Main page
METAR-TAF:

METAR-TAF

Airports :

Iranshahr, Iran

latitude: 27-12N, longitude: 060-42E, elevation: 591 m

Current weather observation

The report was made 25 minutes ago, at 17:00 UTC
Wind 16 kt from the West
Temperature 42°C
Humidity 11%
Pressure 1000 hPa
Visibility 10 km or more
no clouds below 1500 m and no cumulonimbus

METAR: OIZI 231700Z 27016KT CAVOK 42/05 Q1000

Time: 21:55 (17:25 UTC)


TAF: missing

Weather observations and forecasts of more than 4000 airports (METAR and TAF reports).

The available stations are represented by yellow and red dots on the map.

Hover mouse over dot to see the name of the station.

Then click to see weather observations and forecasts.

To change the map : click on the green buttons with a black cross to zoom in, on the green button with a dash to zoom out, or on the green arrows for adjacent maps.


METAR-TAF: